Regional Weather Roundup
Issued by NWS Burlington, VT

Home | Current Version | Previous Version | Text Only | Print | Product List | Glossary On
Versions: 1 2 3 4 5 6 7 8 9 10 11 12 13 14 15 16 17 18 19 20 21 22 23 24 25 26 27 28 29 30 31 32 33 34 35 36 37 38 39 40 41 42 43 44 45 46 47 48 49 50
000
ASUS41 KBTV 240210
RWRBTV
VERMONT REGIONAL WEATHER ROUNDUP
NATIONAL WEATHER SERVICE BURLINGTON VT
1000 PM EDT THU MAR 23 2017

NOTE: "FAIR" INDICATES FEW OR NO CLOUDS BELOW 12,000 FEET WITH NO
SIGNIFICANT WEATHER AND/OR OBSTRUCTIONS TO VISIBILITY.

* THESE REPORTS ARE NOT UNDER NWS QUALITY CONTROL AND/OR DO NOT
  REPORT WEATHER SUCH AS PRECIPITATION AND FOG.

VTZ001>019-240300-
_____VERMONT_____


CITY           SKY/WX    TMP DP  RH WIND       PRES   REMARKS
BURLINGTON     CLOUDY    29   6  38 CALM      30.47F
MONTPELIER     CLOUDY    21   6  52 CALM      30.47F
MORRISVILLE    CLOUDY    19   7  59 CALM      30.47F
ST. JOHNSBURY*   N/A     20   8  60 MISG      30.44F
LYNDONVILLE*   FAIR      19   2  47 CALM      30.44F
MIDDLEBURY*    FAIR      26  11  54 CALM      30.47F
RUTLAND*       CLOUDY    24   9  52 E6        30.47F WCI  17
SPRINGFIELD    CLEAR     24   6  46 NW3       30.49R
HIGHGATE*      FAIR      25   7  46 SE3       30.47S
NEWPORT*       FAIR      16   3  56 CALM      30.44F
BENNINGTON     CLEAR     24   9  52 SW5       30.50R WCI  18
SUTTON*          N/A     16 N/A N/A MISG        N/A

_____LAKE CHAMPLAIN_____


CITY           SKY/WX    TMP DP  RH WIND       PRES   REMARKS
BURTON ISLAND*   N/A     30  16  55 S3          N/A
COLCHESTER RF*   N/A     32  12  43 S9          N/A  WCI  24
DIAMOND ISL*     N/A     32  16  51 S1          N/A

$$

NYZ007-026>031-035-052-083-087-240300-
_____NORTHERN NEW YORK_____


CITY           SKY/WX    TMP DP  RH WIND       PRES   REMARKS
PLATTSBURGH    PTCLDY    28  12  51 S5        30.47F WCI  23
SARANAC LAKE   CLEAR     19   6  57 CALM      30.39F
MASSENA        CLOUDY    29  15  56 SW9       30.48S WCI  20
WATERTOWN      CLEAR     25  13  60 SE5       30.47F WCI  19
FT DRUM        MOCLDY    26   9  48 S6        30.44F WCI  20
ALBANY         PTCLDY    28   7  41 CALM      30.53R
GLENS FALLS    CLEAR     24  12  60 CALM      30.49F

$$
NHZ002-005-011-240300-
_____NEW HAMPSHIRE_____


CITY           SKY/WX    TMP DP  RH WIND       PRES   REMARKS
LEBANON        PTCLDY    22   8  55 S3        30.47S
KEENE          CLEAR     24  11  57 CALM      30.51R
MT WASHINGTON  PTCLDY     5 -20  30 NW51        N/A  WCI -24
PLYMOUTH       FAIR      27   4  38 CALM      30.48F
WHITEFIELD     PTCLDY    13   0  56 CALM      30.44F

$$

_____REGIONAL QUEBEC LOCATIONS_____


CITY           SKY/WX    TMP DP  RH WIND       PRES   REMARKS
MONTREAL       CLOUDY    30  12  47 SW9       30.46R WCI  22
QUEBEC CITY    MOCLDY    21   5  49 SW8       30.41F WCI  12
SHERBROOKE     PTCLDY    19   1  45 S3        30.43S

_____REGIONAL ONTARIO LOCATIONS_____


CITY           SKY/WX    TMP DP  RH WIND       PRES   REMARKS
OTTAWA         CLOUDY    30  16  55 S12G20    30.42F WCI  21

______KEY______
VSB  - VISIBILITY IN MILES
WCI  - WIND CHILL INDEX
HX   - HEAT INDEX
$$
NNNN



USA.gov is the U.S. government's official web portal to all federal, state and local government web resources and services.